Regional Weather Roundup
Issued by NWS

Home | Current Version | Previous Version | Text Only | Print | Product List | Glossary Off
Versions: 1 2 3 4 5 6 7 8 9 10 11 12 13 14 15 16 17 18 19 20 21 22 23 24 25 26 27

000
ASUS45 KCYS 250710
RWRWY

WYOMING REGIONAL WEATHER ROUNDUP
NATIONAL WEATHER SERVICE CHEYENNE WY
1200 AM MST SAT FEB 25 2017

NOTE:  "FAIR" INDICATES FEW OR NO CLOUDS BELOW 12,000 FEET
WITH NO SIGNIFICANT WEATHER AND/OR OBSTRUCTIONS TO VISIBILITY.

WYZ001-250800-
YELLOWSTONE NATIONAL PARK

CITY           SKY/WX    TMP DP  RH WIND       PRES   REMARKS
LK YELLOWSTONE   N/A      2   0  91 CALM      29.94F
W YELLOWSTONE  NOT AVBL

$$
WYZ002>013-054>058-071-098>099-250800-
NORTHERN WYOMING

CITY           SKY/WX    TMP DP  RH WIND       PRES   REMARKS
JACKSON        CLOUDY    12  10  92 S8        30.01S WCI   1
CODY           FAIR      15  13  91 CALM      29.98F
GREYBULL       CLOUDY    27  21  78 W5        30.00F WCI  22
WORLAND        CLOUDY    20  16  84 S6        30.00S WCI  12
SHERIDAN       MOCLDY    22  17  81 VRB6      29.99F WCI  14
BUFFALO        FAIR      20  14  77 NW9       29.95S WCI   9
GILLETTE       CLOUDY    19  13  77 W6        29.96S WCI  11
HULETT         FAIR      21  14  73 SW5       29.97S WCI  15
NEWCASTLE      FAIR      12  10  92 CALM      29.99F

$$
WYZ014>020-022>026-101>103-250800-
CENTRAL WYOMING

CITY           SKY/WX    TMP DP  RH WIND       PRES   REMARKS
BIG PINEY      FAIR      -5  -8  87 N5        30.01R WCI -16
PINEDALE       FAIR      -4  -8  84 N5        30.00S WCI -15
DUBOIS         FAIR       5  -2  72 NW15      29.92F WCI -13
LANDER         FAIR      10   5  80 SE3       29.96S
RIVERTON       FAIR      10   7  87 SW14      29.97S WCI  -6
CASPER         CLOUDY    11   6  81 SW9       29.95F WCI  -2
DOUGLAS        FOG       -1  -3  91 NW3       29.97F VSB 1/4

$$
WYZ021-027>030-104>119-250800-
SOUTHERN WYOMING

CITY           SKY/WX    TMP DP  RH WIND       PRES   REMARKS
EVANSTON       FAIR       7   1  76 SW6       30.02S WCI  -3
FORT BRIDGER   FAIR      10   3  74 W13       30.05S WCI  -6
ROCK SPRINGS   NOT AVBL
DIXON            N/A      4  -1  81 CALM      30.06S
RAWLINS        FAIR       9   3  77 W17       29.96S WCI  -9
SARATOGA       CLOUDY    14   7  73 SW13      29.97S WCI   0
LARAMIE        MOCLDY     7   1  76 W9        29.89F WCI  -7
CHEYENNE       FAIR       7   1  76 W5        29.94F WCI  -2
TORRINGTON     FOG        5   3  91 CALM      30.01S VSB 1/4
PINE BLUFFS    FAIR       3   1  92 MISG      30.01S

$$




USA.gov is the U.S. government's official web portal to all federal, state and local government web resources and services.